Overview Statistics Trail Chart Weather Telemetry Raw packets
 

This is the latest recevied weather packets stored in our database for station/object K2CAT. If no packets are shown the sender has not sent any weather packets the latest 10 day(s).

<< 69 70 71 72 73 74 75 >>
Time Temp. Humidity Pressure Rain* Wind** Luminosity Snow
1777222502 15.56° C 55% 1020.1 hPa 0 mm - 627 W/m² -
1777222199 15.56° C 61% 1020 hPa 0 mm - 750 W/m² -
1777221897 15.56° C 58% 1020.3 hPa 0 mm - 749 W/m² -
1777221597 15.56° C 60% 1020.2 hPa 0 mm - 786 W/m² -
1777221294 15° C 56% 1020.1 hPa 0 mm - 787 W/m² -
1777220990 14.44° C 54% 1020.5 hPa 0 mm - 827 W/m² -
1777220686 13.89° C 55% 1020.3 hPa 0 mm - 694 W/m² -
1777220383 14.44° C 59% 1020.6 hPa 0 mm - 555 W/m² -
1777220082 14.44° C 62% 1020.5 hPa 0 mm - 517 W/m² -
1777219779 14.44° C 59% 1020.4 hPa 0 mm - 720 W/m² -
1777219478 13.89° C 55% 1020.5 hPa 0 mm - 714 W/m² -
1777219173 14.44° C 57% 1020.5 hPa 0 mm - 710 W/m² -
1777218869 13.89° C 57% 1020.5 hPa 0 mm - 711 W/m² -
1777218565 14.44° C 63% 1020.6 hPa 0 mm - 705 W/m² -
1777218260 13.89° C 67% 1020.6 hPa 0 mm - 691 W/m² -
1777217958 14.44° C 70% 1020.4 hPa 0 mm - 684 W/m² -
1777217657 13.89° C 72% 1020.3 hPa 0 mm - 665 W/m² -
1777217354 13.33° C 74% 1020.5 hPa 0 mm - 656 W/m² -
1777217050 13.33° C 70% 1020.3 hPa 0 mm - 656 W/m² -
1777216747 12.78° C 74% 1020.5 hPa 0 mm - 628 W/m² -
1777216442 12.78° C 73% 1020.4 hPa 0 mm - 588 W/m² -
1777216142 12.22° C 76% 1020.5 hPa 0 mm - 483 W/m² -
1777215837 12.22° C 76% 1020.5 hPa 0 mm - 315 W/m² -
1777215533 12.22° C 74% 1020.6 hPa 0 mm - 307 W/m² -
1777215230 12.22° C 78% 1020.5 hPa 0 mm - 348 W/m² -

* Rain latest hour (hover to see other rain measurements)
** Current wind speed in m/s (hover to see current wind gust speed)